Time,TemperatureF,DewpointF,PressureIn,WindDirection,WindDirectionDegrees,WindSpeedMPH,WindSpeedGustMPH,Humidity,HourlyPrecipIn,Conditions,Clouds,dailyrainin,SoftwareType,DateUTC
2013-03-20 01:00:00,42.8,30.3,29.88,North,-999,-999.0,0.0,61,0.00,,---,0.00,VWS V14.01,2013-03-20 05:00:00,
2013-03-20 01:05:00,42.8,30.7,29.87,North,-999,-999.0,0.0,62,0.00,,---,0.00,VWS V14.01,2013-03-20 05:05:00,
2013-03-20 01:10:00,42.5,30.8,29.87,North,-999,-999.0,0.0,63,0.00,,---,0.00,VWS V14.01,2013-03-20 05:10:00,
2013-03-20 01:15:00,42.1,30.4,29.87,North,-999,-999.0,0.0,63,0.00,,---,0.00,VWS V14.01,2013-03-20 05:15:00,
2013-03-20 01:20:00,41.8,29.8,29.87,North,-999,-999.0,0.0,62,0.00,,---,0.00,VWS V14.01,2013-03-20 05:20:00,
2013-03-20 01:25:00,41.6,30.0,29.87,North,-999,-999.0,0.0,63,0.00,,---,0.00,VWS V14.01,2013-03-20 05:25:00,
2013-03-20 01:30:00,41.4,29.8,29.87,North,-999,-999.0,0.0,63,0.00,,---,0.00,VWS V14.01,2013-03-20 05:30:00,
2013-03-20 01:37:00,41.0,29.4,29.87,North,-999,-999.0,0.0,63,0.00,,---,0.00,VWS V14.01,2013-03-20 05:37:00,
2013-03-20 01:42:00,40.7,29.1,29.87,North,-999,-999.0,0.0,63,0.00,,---,0.00,VWS V14.01,2013-03-20 05:42:00,
2013-03-20 01:47:00,40.3,28.7,29.86,North,-999,-999.0,0.0,63,0.00,,---,0.00,VWS V14.01,2013-03-20 05:47:00,
2013-03-20 01:52:00,40.1,28.5,29.86,North,-999,-999.0,0.0,63,0.00,,---,0.00,VWS V14.01,2013-03-20 05:52:00,
2013-03-20 01:58:00,39.8,28.2,29.86,North,-999,-999.0,0.0,63,0.00,,---,0.00,VWS V14.01,2013-03-20 05:58:00,
2013-03-20 02:04:00,39.4,27.9,29.86,North,-999,-999.0,0.0,63,0.00,,---,0.00,VWS V14.01,2013-03-20 06:04:00,
2013-03-20 02:09:00,39.2,28.1,29.86,North,-999,-999.0,0.0,64,0.00,,---,0.00,VWS V14.01,2013-03-20 06:09:00,
2013-03-20 02:14:00,38.9,28.1,29.86,North,-999,-999.0,0.0,65,0.00,,---,0.00,VWS V14.01,2013-03-20 06:14:00,
2013-03-20 02:19:00,38.5,27.8,29.86,North,-999,-999.0,0.0,65,0.00,,---,0.00,VWS V14.01,2013-03-20 06:19:00,
2013-03-20 02:24:00,38.5,28.1,29.86,North,-999,-999.0,0.0,66,0.00,,---,0.00,VWS V14.01,2013-03-20 06:24:00,
2013-03-20 02:29:00,38.2,27.9,29.86,North,-999,-999.0,0.0,66,0.00,,---,0.00,VWS V14.01,2013-03-20 06:29:00,
2013-03-20 02:34:00,38.0,28.0,29.86,North,-999,-999.0,0.0,67,0.00,,---,0.00,VWS V14.01,2013-03-20 06:34:00,
2013-03-20 02:40:00,37.8,27.8,29.86,North,-999,-999.0,0.0,67,0.00,,---,0.00,VWS V14.01,2013-03-20 06:40:00,
2013-03-20 02:45:00,37.8,27.8,29.86,North,-999,-999.0,0.0,67,0.00,,---,0.00,VWS V14.01,2013-03-20 06:45:00,
2013-03-20 02:50:00,37.8,27.8,29.86,North,-999,-999.0,0.0,67,0.00,,---,0.00,VWS V14.01,2013-03-20 06:50:00,
2013-03-20 02:55:00,37.6,27.6,29.86,North,-999,-999.0,0.0,67,0.00,,---,0.00,VWS V14.01,2013-03-20 06:55:00,
2013-03-20 03:00:00,37.4,27.1,29.86,North,-999,-999.0,0.0,66,0.00,,---,0.00,VWS V14.01,2013-03-20 07:00:00,
2013-03-20 03:06:00,37.3,27.4,29.86,North,-999,-999.0,0.0,67,0.00,,---,0.00,VWS V14.01,2013-03-20 07:06:00,
2013-03-20 03:11:00,37.1,27.2,29.86,North,-999,-999.0,0.0,67,0.00,,---,0.00,VWS V14.01,2013-03-20 07:11:00,
2013-03-20 03:16:00,37.1,27.2,29.86,North,-999,-999.0,0.0,67,0.00,,---,0.00,VWS V14.01,2013-03-20 07:16:00,
2013-03-20 03:22:00,37.1,27.2,29.86,North,-999,-999.0,0.0,67,0.00,,---,0.00,VWS V14.01,2013-03-20 07:22:00,
2013-03-20 03:27:00,37.1,27.2,29.86,North,-999,-999.0,0.0,67,0.00,,---,0.00,VWS V14.01,2013-03-20 07:27:00,
2013-03-20 03:32:00,37.1,27.5,29.85,North,-999,-999.0,0.0,68,0.00,,---,0.00,VWS V14.01,2013-03-20 07:32:00,
2013-03-20 03:37:00,37.3,27.7,29.85,North,-999,-999.0,0.0,68,0.00,,---,0.00,VWS V14.01,2013-03-20 07:37:00,
2013-03-20 03:42:00,37.3,27.4,29.85,North,-999,-999.0,0.0,67,0.00,,---,0.00,VWS V14.01,2013-03-20 07:42:00,
2013-03-20 03:47:00,37.3,27.4,29.85,North,-999,-999.0,0.0,67,0.00,,---,0.00,VWS V14.01,2013-03-20 07:47:00,
2013-03-20 03:52:00,37.3,27.4,29.85,North,-999,-999.0,0.0,67,0.00,,---,0.00,VWS V14.01,2013-03-20 07:52:00,
2013-03-20 03:57:00,37.3,27.4,29.85,North,-999,-999.0,0.0,67,0.00,,---,0.00,VWS V14.01,2013-03-20 07:57:00,
2013-03-20 04:03:00,37.3,27.4,29.85,North,-999,-999.0,0.0,67,0.00,,---,0.00,VWS V14.01,2013-03-20 08:03:00,
2013-03-20 04:08:00,37.1,27.5,29.85,North,-999,-999.0,0.0,68,0.00,,---,0.00,VWS V14.01,2013-03-20 08:08:00,
2013-03-20 04:13:00,37.1,27.5,29.85,North,-999,-999.0,0.0,68,0.00,,---,0.00,VWS V14.01,2013-03-20 08:13:00,
2013-03-20 04:18:00,37.1,27.5,29.85,North,-999,-999.0,0.0,68,0.00,,---,0.00,VWS V14.01,2013-03-20 08:18:00,
2013-03-20 04:23:00,37.1,27.5,29.84,North,-999,-999.0,0.0,68,0.00,,---,0.00,VWS V14.01,2013-03-20 08:23:00,
2013-03-20 04:28:00,37.3,27.7,29.84,North,-999,-999.0,0.0,68,0.00,,---,0.00,VWS V14.01,2013-03-20 08:28:00,
2013-03-20 04:33:00,37.3,27.7,29.84,North,-999,-999.0,0.0,68,0.00,,---,0.00,VWS V14.01,2013-03-20 08:33:00,
2013-03-20 04:38:00,37.3,28.1,29.84,North,-999,-999.0,0.0,69,0.00,,---,0.00,VWS V14.01,2013-03-20 08:38:00,
2013-03-20 04:43:00,37.3,27.7,29.85,North,-999,-999.0,0.0,68,0.00,,---,0.00,VWS V14.01,2013-03-20 08:43:00,
2013-03-20 04:48:00,37.3,28.1,29.84,North,-999,-999.0,0.0,69,0.00,,---,0.00,VWS V14.01,2013-03-20 08:48:00,
2013-03-20 04:53:00,37.1,27.9,29.84,North,-999,-999.0,0.0,69,0.00,,---,0.00,VWS V14.01,2013-03-20 08:53:00,
2013-03-20 04:58:00,37.1,28.2,29.84,North,-999,-999.0,0.0,70,0.00,,---,0.00,VWS V14.01,2013-03-20 08:58:00,
2013-03-20 05:03:00,36.9,28.0,29.84,North,-999,-999.0,0.0,70,0.00,,---,0.00,VWS V14.01,2013-03-20 09:03:00,
2013-03-20 05:09:00,36.7,27.5,29.85,North,-999,-999.0,0.0,69,0.00,,---,0.00,VWS V14.01,2013-03-20 09:09:00,
2013-03-20 05:15:00,36.7,27.5,29.85,North,-999,-999.0,0.0,69,0.00,,---,0.00,VWS V14.01,2013-03-20 09:15:00,
2013-03-20 06:00:00,43.0,23.1,29.85,North,-999,-999.0,0.0,45,0.00,,---,0.00,VWS V14.01,2013-03-20 10:00:00,
2013-03-20 06:06:00,43.0,23.1,29.85,North,-999,-999.0,0.0,45,0.00,,---,0.00,VWS V14.01,2013-03-20 10:06:00,
2013-03-20 07:00:00,44.1,19.5,29.88,North,-999,-999.0,0.0,37,0.00,,---,0.00,VWS V14.01,2013-03-20 11:00:00,
2013-03-20 07:08:00,44.1,19.5,29.88,North,-999,-999.0,0.0,37,0.00,,---,0.00,VWS V14.01,2013-03-20 11:08:00,
2013-03-20 08:01:00,44.5,19.2,29.90,North,-999,-999.0,0.0,36,0.00,,---,0.00,VWS V14.01,2013-03-20 12:01:00,
2013-03-20 08:06:00,44.5,18.6,29.91,North,-999,-999.0,0.0,35,0.00,,---,0.00,VWS V14.01,2013-03-20 12:06:00,
2013-03-20 08:11:00,44.6,19.3,29.91,North,-999,-999.0,0.0,36,0.00,,---,0.00,VWS V14.01,2013-03-20 12:11:00,
2013-03-20 08:17:00,44.8,19.5,29.91,North,-999,-999.0,0.0,36,0.00,,---,0.00,VWS V14.01,2013-03-20 12:17:00,
2013-03-20 08:22:00,45.0,19.7,29.92,North,-999,-999.0,0.0,36,0.00,,---,0.00,VWS V14.01,2013-03-20 12:22:00,
2013-03-20 08:27:00,45.0,19.7,29.92,North,-999,-999.0,0.0,36,0.00,,---,0.00,VWS V14.01,2013-03-20 12:27:00,
2013-03-20 08:33:00,45.2,19.9,29.92,North,-999,-999.0,0.0,36,0.00,,---,0.00,VWS V14.01,2013-03-20 12:33:00,
2013-03-20 08:38:00,45.4,20.7,29.92,North,-999,-999.0,0.0,37,0.00,,---,0.00,VWS V14.01,2013-03-20 12:38:00,
2013-03-20 08:43:00,45.5,20.1,29.92,North,-999,-999.0,0.0,36,0.00,,---,0.00,VWS V14.01,2013-03-20 12:43:00,
2013-03-20 08:49:00,45.9,20.5,29.92,North,-999,-999.0,0.0,36,0.00,,---,0.00,VWS V14.01,2013-03-20 12:49:00,
2013-03-20 08:54:00,46.1,20.6,29.92,North,-999,-999.0,0.0,36,0.00,,---,0.00,VWS V14.01,2013-03-20 12:54:00,
2013-03-20 08:59:00,46.4,20.9,29.92,North,-999,-999.0,0.0,36,0.00,,---,0.00,VWS V14.01,2013-03-20 12:59:00,
2013-03-20 09:05:00,46.4,20.2,29.92,North,-999,-999.0,0.0,35,0.00,,---,0.00,VWS V14.01,2013-03-20 13:05:00,
2013-03-20 09:10:00,46.8,20.6,29.92,North,-999,-999.0,0.0,35,0.00,,---,0.00,VWS V14.01,2013-03-20 13:10:00,
2013-03-20 09:15:00,47.0,20.1,29.92,North,-999,-999.0,0.0,34,0.00,,---,0.00,VWS V14.01,2013-03-20 13:15:00,
2013-03-20 09:20:00,47.2,21.0,29.92,North,-999,-999.0,0.0,35,0.00,,---,0.00,VWS V14.01,2013-03-20 13:20:00,
2013-03-20 09:22:00,47.2,21.0,29.92,North,-999,-999.0,0.0,35,0.00,,---,0.00,VWS V14.01,2013-03-20 13:22:00,
2013-03-20 09:26:00,47.2,21.0,29.92,North,-999,-999.0,0.0,35,0.00,,---,0.00,VWS V14.01,2013-03-20 13:26:00,
2013-03-20 09:32:00,47.2,21.0,29.92,North,-999,-999.0,0.0,35,0.00,,---,0.00,VWS V14.01,2013-03-20 13:32:00,
2013-03-20 09:59:00,49.7,21.1,29.92,North,-999,-999.0,0.0,32,0.00,,---,0.00,VWS V14.01,2013-03-20 13:59:00,
2013-03-20 10:05:00,49.5,20.9,29.92,North,-999,-999.0,0.0,32,0.00,,---,0.00,VWS V14.01,2013-03-20 14:05:00,
2013-03-20 10:10:00,49.5,20.1,29.92,North,-999,-999.0,0.0,31,0.00,,---,0.00,VWS V14.01,2013-03-20 14:10:00,
2013-03-20 10:16:00,49.7,21.1,29.92,North,-999,-999.0,0.0,32,0.00,,---,0.00,VWS V14.01,2013-03-20 14:16:00,
2013-03-20 10:22:00,49.7,21.1,29.93,North,-999,-999.0,0.0,32,0.00,,---,0.00,VWS V14.01,2013-03-20 14:22:00,
2013-03-20 10:28:00,49.7,20.3,29.93,North,-999,-999.0,0.0,31,0.00,,---,0.00,VWS V14.01,2013-03-20 14:28:00,
2013-03-20 10:33:00,50.0,20.6,29.93,North,-999,-999.0,0.0,31,0.00,,---,0.00,VWS V14.01,2013-03-20 14:33:00,
2013-03-20 10:38:00,50.8,21.3,29.93,North,-999,-999.0,0.0,31,0.00,,---,0.00,VWS V14.01,2013-03-20 14:38:00,
2013-03-20 10:43:00,51.1,20.8,29.93,North,-999,-999.0,0.0,30,0.00,,---,0.00,VWS V14.01,2013-03-20 14:43:00,
2013-03-20 10:48:00,51.8,21.4,29.92,North,-999,-999.0,0.0,30,0.00,,---,0.00,VWS V14.01,2013-03-20 14:48:00,
2013-03-20 10:53:00,52.6,22.1,29.93,North,-999,-999.0,0.0,30,0.00,,---,0.00,VWS V14.01,2013-03-20 14:53:00,
2013-03-20 10:59:00,53.5,22.9,29.93,North,-999,-999.0,0.0,30,0.00,,---,0.00,VWS V14.01,2013-03-20 14:59:00,
2013-03-20 11:04:00,54.0,22.5,29.93,North,-999,-999.0,0.0,29,0.00,,---,0.00,VWS V14.01,2013-03-20 15:04:00,
2013-03-20 11:09:00,54.4,22.8,29.93,North,-999,-999.0,0.0,29,0.00,,---,0.00,VWS V14.01,2013-03-20 15:09:00,
2013-03-20 11:15:00,54.4,22.0,29.93,North,-999,-999.0,0.0,28,0.00,,---,0.00,VWS V14.01,2013-03-20 15:15:00,
2013-03-20 11:20:00,54.7,23.1,29.93,North,-999,-999.0,0.0,29,0.00,,---,0.00,VWS V14.01,2013-03-20 15:20:00,
2013-03-20 11:25:00,55.1,21.7,29.93,North,-999,-999.0,0.0,27,0.00,,---,0.00,VWS V14.01,2013-03-20 15:25:00,
2013-03-20 11:31:00,55.1,21.7,29.93,North,-999,-999.0,0.0,27,0.00,,---,0.00,VWS V14.01,2013-03-20 15:31:00,
2013-03-20 11:37:00,55.4,22.0,29.93,North,-999,-999.0,0.0,27,0.00,,---,0.00,VWS V14.01,2013-03-20 15:37:00,
2013-03-20 11:42:00,56.2,22.7,29.92,North,-999,-999.0,0.0,27,0.00,,---,0.00,VWS V14.01,2013-03-20 15:42:00,
2013-03-20 11:47:00,56.2,20.9,29.92,North,-999,-999.0,0.0,25,0.00,,---,0.00,VWS V14.01,2013-03-20 15:47:00,
2013-03-20 11:53:00,56.9,18.5,29.92,North,-999,-999.0,0.0,22,0.00,,---,0.00,VWS V14.01,2013-03-20 15:53:00,
2013-03-20 11:58:00,57.8,21.3,29.92,North,-999,-999.0,0.0,24,0.00,,---,0.00,VWS V14.01,2013-03-20 15:58:00,
2013-03-20 12:04:00,59.8,23.9,29.92,North,-999,-999.0,0.0,25,0.00,,---,0.00,VWS V14.01,2013-03-20 16:04:00,
2013-03-20 12:09:00,61.9,23.7,29.91,North,-999,-999.0,0.0,23,0.00,,---,0.00,VWS V14.01,2013-03-20 16:09:00,
2013-03-20 12:14:00,62.8,23.4,29.91,North,-999,-999.0,0.0,22,0.00,,---,0.00,VWS V14.01,2013-03-20 16:14:00,
2013-03-20 12:19:00,59.8,19.8,29.91,North,-999,-999.0,0.0,21,0.00,,---,0.00,VWS V14.01,2013-03-20 16:19:00,
2013-03-20 12:24:00,58.7,17.8,29.90,North,-999,-999.0,0.0,20,0.00,,---,0.00,VWS V14.01,2013-03-20 16:24:00,
2013-03-20 12:30:00,59.6,20.7,29.90,North,-999,-999.0,0.0,22,0.00,,---,0.00,VWS V14.01,2013-03-20 16:30:00,
2013-03-20 12:35:00,59.8,18.7,29.89,North,-999,-999.0,0.0,20,0.00,,---,0.00,VWS V14.01,2013-03-20 16:35:00,
2013-03-20 12:40:00,58.9,19.1,29.89,North,-999,-999.0,0.0,21,0.00,,---,0.00,VWS V14.01,2013-03-20 16:40:00,
2013-03-20 12:45:00,59.8,19.8,29.89,North,-999,-999.0,0.0,21,0.00,,---,0.00,VWS V14.01,2013-03-20 16:45:00,
2013-03-20 12:50:00,61.0,20.8,29.88,North,-999,-999.0,0.0,21,0.00,,---,0.00,VWS V14.01,2013-03-20 16:50:00,
2013-03-20 12:55:00,62.8,23.4,29.88,North,-999,-999.0,0.0,22,0.00,,---,0.00,VWS V14.01,2013-03-20 16:55:00,
2013-03-20 13:00:00,63.2,21.5,29.87,North,-999,-999.0,0.0,20,0.00,,---,0.00,VWS V14.01,2013-03-20 17:00:00,
2013-03-20 13:06:00,61.4,21.1,29.87,North,-999,-999.0,0.0,21,0.00,,---,0.00,VWS V14.01,2013-03-20 17:06:00,
2013-03-20 13:11:00,62.8,22.3,29.86,North,-999,-999.0,0.0,21,0.00,,---,0.00,VWS V14.01,2013-03-20 17:11:00,
2013-03-20 13:16:00,64.6,24.9,29.86,North,-999,-999.0,0.0,22,0.00,,---,0.00,VWS V14.01,2013-03-20 17:16:00,
2013-03-20 13:22:00,65.9,22.5,29.86,North,-999,-999.0,0.0,19,0.00,,---,0.00,VWS V14.01,2013-03-20 17:22:00,
2013-03-20 13:27:00,65.7,22.3,29.85,North,-999,-999.0,0.0,19,0.00,,---,0.00,VWS V14.01,2013-03-20 17:27:00,
2013-03-20 13:32:00,63.9,19.6,29.85,North,-999,-999.0,0.0,18,0.00,,---,0.00,VWS V14.01,2013-03-20 17:32:00,
2013-03-20 13:37:00,64.8,24.0,29.85,North,-999,-999.0,0.0,21,0.00,,---,0.00,VWS V14.01,2013-03-20 17:37:00,
2013-03-20 13:42:00,64.4,20.0,29.85,North,-999,-999.0,0.0,18,0.00,,---,0.00,VWS V14.01,2013-03-20 17:42:00,
2013-03-20 13:48:00,62.3,19.5,29.84,North,-999,-999.0,0.0,19,0.00,,---,0.00,VWS V14.01,2013-03-20 17:48:00,
2013-03-20 13:53:00,61.7,19.0,29.84,North,-999,-999.0,0.0,19,0.00,,---,0.00,VWS V14.01,2013-03-20 17:53:00,
2013-03-20 13:59:00,60.8,19.5,29.83,North,-999,-999.0,0.0,20,0.00,,---,0.00,VWS V14.01,2013-03-20 17:59:00,
2013-03-20 14:04:00,61.9,21.6,29.82,North,-999,-999.0,0.0,21,0.00,,---,0.00,VWS V14.01,2013-03-20 18:04:00,
2013-03-20 14:09:00,63.0,21.3,29.82,North,-999,-999.0,0.0,20,0.00,,---,0.00,VWS V14.01,2013-03-20 18:09:00,
2013-03-20 14:14:00,62.8,20.0,29.82,North,-999,-999.0,0.0,19,0.00,,---,0.00,VWS V14.01,2013-03-20 18:14:00,
2013-03-20 14:19:00,61.9,22.7,29.81,North,-999,-999.0,0.0,22,0.00,,---,0.00,VWS V14.01,2013-03-20 18:19:00,
2013-03-20 14:24:00,63.0,20.1,29.80,North,-999,-999.0,0.0,19,0.00,,---,0.00,VWS V14.01,2013-03-20 18:24:00,
2013-03-20 14:29:00,63.2,22.6,29.80,North,-999,-999.0,0.0,21,0.00,,---,0.00,VWS V14.01,2013-03-20 18:29:00,
2013-03-20 14:34:00,62.5,19.7,29.79,North,-999,-999.0,0.0,19,0.00,,---,0.00,VWS V14.01,2013-03-20 18:34:00,
2013-03-20 14:39:00,61.2,18.6,29.78,North,-999,-999.0,0.0,19,0.00,,---,0.00,VWS V14.01,2013-03-20 18:39:00,
2013-03-20 14:44:00,61.7,19.0,29.78,North,-999,-999.0,0.0,19,0.00,,---,0.00,VWS V14.01,2013-03-20 18:44:00,
2013-03-20 14:49:00,63.0,22.5,29.78,North,-999,-999.0,0.0,21,0.00,,---,0.00,VWS V14.01,2013-03-20 18:49:00,
2013-03-20 14:54:00,65.0,23.0,29.77,North,-999,-999.0,0.0,20,0.00,,---,0.00,VWS V14.01,2013-03-20 18:54:00,
2013-03-20 15:00:00,65.3,20.7,29.76,North,-999,-999.0,0.0,18,0.00,,---,0.00,VWS V14.01,2013-03-20 19:00:00,
2013-03-20 15:05:00,65.2,21.9,29.76,North,-999,-999.0,0.0,19,0.00,,---,0.00,VWS V14.01,2013-03-20 19:05:00,
2013-03-20 15:10:00,64.6,21.4,29.76,North,-999,-999.0,0.0,19,0.00,,---,0.00,VWS V14.01,2013-03-20 19:10:00,
2013-03-20 15:15:00,64.4,20.0,29.75,North,-999,-999.0,0.0,18,0.00,,---,0.00,VWS V14.01,2013-03-20 19:15:00,
2013-03-20 15:20:00,64.4,21.3,29.74,North,-999,-999.0,0.0,19,0.00,,---,0.00,VWS V14.01,2013-03-20 19:20:00,
2013-03-20 15:25:00,64.1,19.8,29.74,North,-999,-999.0,0.0,18,0.00,,---,0.00,VWS V14.01,2013-03-20 19:25:00,
2013-03-20 15:30:00,63.7,20.7,29.74,North,-999,-999.0,0.0,19,0.00,,---,0.00,VWS V14.01,2013-03-20 19:30:00,
2013-03-20 15:35:00,64.4,23.6,29.73,North,-999,-999.0,0.0,21,0.00,,---,0.00,VWS V14.01,2013-03-20 19:35:00,
2013-03-20 15:40:00,64.4,21.3,29.73,North,-999,-999.0,0.0,19,0.00,,---,0.00,VWS V14.01,2013-03-20 19:40:00,
2013-03-20 15:45:00,65.5,22.2,29.73,North,-999,-999.0,0.0,19,0.00,,---,0.00,VWS V14.01,2013-03-20 19:45:00,
2013-03-20 15:50:00,65.2,21.9,29.72,North,-999,-999.0,0.0,19,0.00,,---,0.00,VWS V14.01,2013-03-20 19:50:00,
2013-03-20 15:55:00,65.0,20.5,29.72,North,-999,-999.0,0.0,18,0.00,,---,0.00,VWS V14.01,2013-03-20 19:55:00,
2013-03-20 16:01:00,64.4,20.0,29.72,North,-999,-999.0,0.0,18,0.00,,---,0.00,VWS V14.01,2013-03-20 20:01:00,
2013-03-20 16:06:00,64.6,20.2,29.72,North,-999,-999.0,0.0,18,0.00,,---,0.00,VWS V14.01,2013-03-20 20:06:00,
2013-03-20 16:11:00,66.1,21.4,29.71,North,-999,-999.0,0.0,18,0.00,,---,0.00,VWS V14.01,2013-03-20 20:11:00,
2013-03-20 16:16:00,65.9,19.9,29.71,North,-999,-999.0,0.0,17,0.00,,---,0.00,VWS V14.01,2013-03-20 20:16:00,
2013-03-20 16:22:00,64.3,19.9,29.70,North,-999,-999.0,0.0,18,0.00,,---,0.00,VWS V14.01,2013-03-20 20:22:00,
2013-03-20 16:27:00,64.6,20.2,29.70,North,-999,-999.0,0.0,18,0.00,,---,0.00,VWS V14.01,2013-03-20 20:27:00,
2013-03-20 16:32:00,64.1,19.8,29.70,North,-999,-999.0,0.0,18,0.00,,---,0.00,VWS V14.01,2013-03-20 20:32:00,
2013-03-20 16:37:00,65.9,21.2,29.70,North,-999,-999.0,0.0,18,0.00,,---,0.00,VWS V14.01,2013-03-20 20:37:00,
2013-03-20 16:42:00,64.8,19.0,29.69,North,-999,-999.0,0.0,17,0.00,,---,0.00,VWS V14.01,2013-03-20 20:42:00,
2013-03-20 16:47:00,64.1,19.8,29.69,North,-999,-999.0,0.0,18,0.00,,---,0.00,VWS V14.01,2013-03-20 20:47:00,
2013-03-20 16:52:00,65.3,20.7,29.69,North,-999,-999.0,0.0,18,0.00,,---,0.00,VWS V14.01,2013-03-20 20:52:00,
2013-03-20 16:58:00,64.8,19.0,29.69,North,-999,-999.0,0.0,17,0.00,,---,0.00,VWS V14.01,2013-03-20 20:58:00,
2013-03-20 17:04:00,65.2,20.7,29.69,North,-999,-999.0,0.0,18,0.00,,---,0.00,VWS V14.01,2013-03-20 21:04:00,
2013-03-20 17:09:00,65.3,19.4,29.69,North,-999,-999.0,0.0,17,0.00,,---,0.00,VWS V14.01,2013-03-20 21:09:00,
2013-03-20 17:14:00,64.8,19.0,29.68,North,-999,-999.0,0.0,17,0.00,,---,0.00,VWS V14.01,2013-03-20 21:14:00,
2013-03-20 17:19:00,67.0,20.8,29.68,North,-999,-999.0,0.0,17,0.00,,---,0.00,VWS V14.01,2013-03-20 21:19:00,
2013-03-20 17:25:00,67.0,19.4,29.68,North,-999,-999.0,0.0,16,0.00,,---,0.00,VWS V14.01,2013-03-20 21:25:00,
2013-03-20 17:30:00,67.1,19.4,29.68,North,-999,-999.0,0.0,16,0.00,,---,0.00,VWS V14.01,2013-03-20 21:30:00,
2013-03-20 17:35:00,65.3,18.0,29.67,North,-999,-999.0,0.0,16,0.00,,---,0.00,VWS V14.01,2013-03-20 21:35:00,
2013-03-20 17:40:00,64.3,18.6,29.67,North,-999,-999.0,0.0,17,0.00,,---,0.00,VWS V14.01,2013-03-20 21:40:00,
2013-03-20 17:45:00,66.1,20.0,29.67,North,-999,-999.0,0.0,17,0.00,,---,0.00,VWS V14.01,2013-03-20 21:45:00,
2013-03-20 17:50:00,66.6,19.0,29.67,North,-999,-999.0,0.0,16,0.00,,---,0.00,VWS V14.01,2013-03-20 21:50:00,
2013-03-20 17:55:00,66.1,20.0,29.67,North,-999,-999.0,0.0,17,0.00,,---,0.00,VWS V14.01,2013-03-20 21:55:00,
2013-03-20 18:01:00,65.7,19.7,29.67,North,-999,-999.0,0.0,17,0.00,,---,0.00,VWS V14.01,2013-03-20 22:01:00,
2013-03-20 18:06:00,65.3,19.4,29.67,North,-999,-999.0,0.0,17,0.00,,---,0.00,VWS V14.01,2013-03-20 22:06:00,
2013-03-20 18:11:00,65.0,19.2,29.66,North,-999,-999.0,0.0,17,0.00,,---,0.00,VWS V14.01,2013-03-20 22:11:00,
2013-03-20 18:17:00,64.3,18.6,29.66,North,-999,-999.0,0.0,17,0.00,,---,0.00,VWS V14.01,2013-03-20 22:17:00,
2013-03-20 18:22:00,62.8,18.7,29.66,North,-999,-999.0,0.0,18,0.00,,---,0.00,VWS V14.01,2013-03-20 22:22:00,
2013-03-20 18:27:00,62.8,20.0,29.65,North,-999,-999.0,0.0,19,0.00,,---,0.00,VWS V14.01,2013-03-20 22:27:00,
2013-03-20 18:32:00,62.6,19.8,29.65,North,-999,-999.0,0.0,19,0.00,,---,0.00,VWS V14.01,2013-03-20 22:32:00,
2013-03-20 18:37:00,62.6,19.8,29.65,North,-999,-999.0,0.0,19,0.00,,---,0.00,VWS V14.01,2013-03-20 22:37:00,
2013-03-20 18:42:00,62.5,19.7,29.65,North,-999,-999.0,0.0,19,0.00,,---,0.00,VWS V14.01,2013-03-20 22:42:00,
2013-03-20 18:47:00,62.3,19.5,29.65,North,-999,-999.0,0.0,19,0.00,,---,0.00,VWS V14.01,2013-03-20 22:47:00,
2013-03-20 18:52:00,61.2,21.0,29.64,North,-999,-999.0,0.0,21,0.00,,---,0.00,VWS V14.01,2013-03-20 22:52:00,
2013-03-20 18:57:00,60.7,20.6,29.64,North,-999,-999.0,0.0,21,0.00,,---,0.00,VWS V14.01,2013-03-20 22:57:00,
2013-03-20 19:03:00,60.1,20.1,29.64,North,-999,-999.0,0.0,21,0.00,,---,0.00,VWS V14.01,2013-03-20 23:03:00,
2013-03-20 19:08:00,59.4,19.5,29.64,North,-999,-999.0,0.0,21,0.00,,---,0.00,VWS V14.01,2013-03-20 23:08:00,
2013-03-20 19:13:00,58.5,18.7,29.64,North,-999,-999.0,0.0,21,0.00,,---,0.00,VWS V14.01,2013-03-20 23:13:00,
2013-03-20 19:18:00,57.8,19.2,29.64,North,-999,-999.0,0.0,22,0.00,,---,0.00,VWS V14.01,2013-03-20 23:18:00,
2013-03-20 19:23:00,56.9,18.5,29.64,North,-999,-999.0,0.0,22,0.00,,---,0.00,VWS V14.01,2013-03-20 23:23:00,
2013-03-20 19:28:00,56.5,19.2,29.64,North,-999,-999.0,0.0,23,0.00,,---,0.00,VWS V14.01,2013-03-20 23:28:00,
2013-03-20 19:33:00,56.3,19.0,29.64,North,-999,-999.0,0.0,23,0.00,,---,0.00,VWS V14.01,2013-03-20 23:33:00,
2013-03-20 19:38:00,56.2,19.9,29.64,North,-999,-999.0,0.0,24,0.00,,---,0.00,VWS V14.01,2013-03-20 23:38:00,
2013-03-20 19:43:00,55.6,19.4,29.64,North,-999,-999.0,0.0,24,0.00,,---,0.00,VWS V14.01,2013-03-20 23:43:00,
2013-03-20 19:48:00,55.3,19.1,29.64,North,-999,-999.0,0.0,24,0.00,,---,0.00,VWS V14.01,2013-03-20 23:48:00,
2013-03-20 19:53:00,55.1,19.9,29.64,North,-999,-999.0,0.0,25,0.00,,---,0.00,VWS V14.01,2013-03-20 23:53:00,
2013-03-20 19:58:00,54.7,18.6,29.63,North,-999,-999.0,0.0,24,0.00,,---,0.00,VWS V14.01,2013-03-20 23:58:00,
2013-03-20 20:04:00,54.5,18.5,29.63,North,-999,-999.0,0.0,24,0.00,,---,0.00,VWS V14.01,2013-03-21 00:04:00,
2013-03-20 20:09:00,54.2,18.2,29.63,North,-999,-999.0,0.0,24,0.00,,---,0.00,VWS V14.01,2013-03-21 00:09:00,
2013-03-20 20:14:00,54.0,18.0,29.63,North,-999,-999.0,0.0,24,0.00,,---,0.00,VWS V14.01,2013-03-21 00:14:00,
2013-03-20 20:19:00,53.6,18.6,29.63,North,-999,-999.0,0.0,25,0.00,,---,0.00,VWS V14.01,2013-03-21 00:19:00,
2013-03-20 20:24:00,53.5,18.6,29.63,North,-999,-999.0,0.0,25,0.00,,---,0.00,VWS V14.01,2013-03-21 00:24:00,
2013-03-20 20:29:00,53.1,18.2,29.64,North,-999,-999.0,0.0,25,0.00,,---,0.00,VWS V14.01,2013-03-21 00:29:00,
2013-03-20 20:34:00,52.9,18.0,29.64,North,-999,-999.0,0.0,25,0.00,,---,0.00,VWS V14.01,2013-03-21 00:34:00,
2013-03-20 20:39:00,52.7,18.8,29.64,North,-999,-999.0,0.0,26,0.00,,---,0.00,VWS V14.01,2013-03-21 00:39:00,
2013-03-20 20:44:00,52.7,18.8,29.64,North,-999,-999.0,0.0,26,0.00,,---,0.00,VWS V14.01,2013-03-21 00:44:00,
2013-03-20 20:49:00,52.6,18.7,29.64,North,-999,-999.0,0.0,26,0.00,,---,0.00,VWS V14.01,2013-03-21 00:49:00,
2013-03-20 20:54:00,52.4,18.5,29.64,North,-999,-999.0,0.0,26,0.00,,---,0.00,VWS V14.01,2013-03-21 00:54:00,
2013-03-20 20:59:00,52.2,19.2,29.64,North,-999,-999.0,0.0,27,0.00,,---,0.00,VWS V14.01,2013-03-21 00:59:00,
2013-03-20 21:05:00,52.0,19.1,29.64,North,-999,-999.0,0.0,27,0.00,,---,0.00,VWS V14.01,2013-03-21 01:05:00,
2013-03-20 21:10:00,51.8,18.9,29.64,North,-999,-999.0,0.0,27,0.00,,---,0.00,VWS V14.01,2013-03-21 01:10:00,
2013-03-20 21:15:00,51.8,18.0,29.64,North,-999,-999.0,0.0,26,0.00,,---,0.00,VWS V14.01,2013-03-21 01:15:00,
2013-03-20 21:20:00,51.7,17.0,29.64,North,-999,-999.0,0.0,25,0.00,,---,0.00,VWS V14.01,2013-03-21 01:20:00,
2013-03-20 21:25:00,51.7,17.0,29.64,North,-999,-999.0,0.0,25,0.00,,---,0.00,VWS V14.01,2013-03-21 01:25:00,
2013-03-20 21:30:00,51.7,17.0,29.64,North,-999,-999.0,0.0,25,0.00,,---,0.00,VWS V14.01,2013-03-21 01:30:00,
2013-03-20 21:35:00,51.7,17.0,29.64,North,-999,-999.0,0.0,25,0.00,,---,0.00,VWS V14.01,2013-03-21 01:35:00,
2013-03-20 21:40:00,51.5,16.9,29.64,North,-999,-999.0,0.0,25,0.00,,---,0.00,VWS V14.01,2013-03-21 01:40:00,
2013-03-20 21:45:00,51.5,16.9,29.64,North,-999,-999.0,0.0,25,0.00,,---,0.00,VWS V14.01,2013-03-21 01:45:00,
2013-03-20 21:50:00,51.5,16.9,29.64,North,-999,-999.0,0.0,25,0.00,,---,0.00,VWS V14.01,2013-03-21 01:50:00,
2013-03-20 21:55:00,51.3,16.7,29.65,North,-999,-999.0,0.0,25,0.00,,---,0.00,VWS V14.01,2013-03-21 01:55:00,
2013-03-20 22:01:00,51.1,16.5,29.65,North,-999,-999.0,0.0,25,0.00,,---,0.00,VWS V14.01,2013-03-21 02:01:00,
2013-03-20 22:06:00,50.9,16.4,29.65,North,-999,-999.0,0.0,25,0.00,,---,0.00,VWS V14.01,2013-03-21 02:06:00,
2013-03-20 22:11:00,50.9,16.4,29.65,North,-999,-999.0,0.0,25,0.00,,---,0.00,VWS V14.01,2013-03-21 02:11:00,
2013-03-20 22:16:00,50.6,17.0,29.65,North,-999,-999.0,0.0,26,0.00,,---,0.00,VWS V14.01,2013-03-21 02:16:00,
2013-03-20 22:21:00,50.4,17.7,29.65,North,-999,-999.0,0.0,27,0.00,,---,0.00,VWS V14.01,2013-03-21 02:21:00,
2013-03-20 22:27:00,50.0,17.4,29.65,North,-999,-999.0,0.0,27,0.00,,---,0.00,VWS V14.01,2013-03-21 02:27:00,
2013-03-20 22:33:00,49.9,17.3,29.65,North,-999,-999.0,0.0,27,0.00,,---,0.00,VWS V14.01,2013-03-21 02:33:00,
2013-03-20 22:38:00,49.7,17.1,29.64,North,-999,-999.0,0.0,27,0.00,,---,0.00,VWS V14.01,2013-03-21 02:38:00,
2013-03-20 22:43:00,49.5,17.8,29.64,North,-999,-999.0,0.0,28,0.00,,---,0.00,VWS V14.01,2013-03-21 02:43:00,
2013-03-20 22:48:00,49.3,17.6,29.64,North,-999,-999.0,0.0,28,0.00,,---,0.00,VWS V14.01,2013-03-21 02:48:00,
2013-03-20 22:53:00,49.0,17.3,29.64,North,-999,-999.0,0.0,28,0.00,,---,0.00,VWS V14.01,2013-03-21 02:53:00,
2013-03-20 22:58:00,49.0,18.1,29.64,North,-999,-999.0,0.0,29,0.00,,---,0.00,VWS V14.01,2013-03-21 02:58:00,
2013-03-20 23:04:00,49.0,18.1,29.64,North,-999,-999.0,0.0,29,0.00,,---,0.00,VWS V14.01,2013-03-21 03:04:00,
2013-03-20 23:09:00,48.8,18.0,29.64,North,-999,-999.0,0.0,29,0.00,,---,0.00,VWS V14.01,2013-03-21 03:09:00,
2013-03-20 23:14:00,48.8,18.8,29.64,North,-999,-999.0,0.0,30,0.00,,---,0.00,VWS V14.01,2013-03-21 03:14:00,
2013-03-20 23:19:00,48.8,18.8,29.64,North,-999,-999.0,0.0,30,0.00,,---,0.00,VWS V14.01,2013-03-21 03:19:00,
2013-03-20 23:24:00,48.6,18.6,29.64,North,-999,-999.0,0.0,30,0.00,,---,0.00,VWS V14.01,2013-03-21 03:24:00,
2013-03-20 23:29:00,48.6,19.4,29.64,North,-999,-999.0,0.0,31,0.00,,---,0.00,VWS V14.01,2013-03-21 03:29:00,
2013-03-20 23:34:00,48.4,19.2,29.64,North,-999,-999.0,0.0,31,0.00,,---,0.00,VWS V14.01,2013-03-21 03:34:00,
2013-03-20 23:39:00,48.4,19.2,29.65,North,-999,-999.0,0.0,31,0.00,,---,0.00,VWS V14.01,2013-03-21 03:39:00,
2013-03-20 23:44:00,48.4,19.9,29.65,North,-999,-999.0,0.0,32,0.00,,---,0.00,VWS V14.01,2013-03-21 03:44:00,
2013-03-20 23:49:00,48.2,19.7,29.65,North,-999,-999.0,0.0,32,0.00,,---,0.00,VWS V14.01,2013-03-21 03:49:00,
2013-03-20 23:54:00,48.1,19.6,29.65,North,-999,-999.0,0.0,32,0.00,,---,0.00,VWS V14.01,2013-03-21 03:54:00,
2013-03-20 23:59:00,47.9,19.5,29.65,North,-999,-999.0,0.0,32,0.00,,---,0.00,VWS V14.01,2013-03-21 03:59:00,